TimeEST,TemperatureF,Dew PointF,Humidity,Sea Level PressureIn,VisibilityMPH,Wind Direction,Wind SpeedMPH,Gust SpeedMPH,PrecipitationIn,Events,Conditions,WindDirDegrees,DateUTC
12:00 AM,37.4,32.0,81,29.87,-9999.0,NNE,9.2,17.3,N/A,Snow,Light Snow,20,2013-03-07 05:00:00
12:10 AM,37.0,32.0,82,29.86,-9999.0,NNE,10.4,18.4,N/A,Snow,Light Snow,20,2013-03-07 05:10:00
12:18 AM,37.4,32.0,81,29.87,-9999.0,Variable,6.9,23.0,N/A,Snow,Light Snow,0,2013-03-07 05:18:00
1:00 AM,35.6,32.0,87,29.88,-9999.0,Variable,5.8,-,N/A,Snow,Snow,0,2013-03-07 06:00:00
1:06 AM,35.1,32.0,89,29.88,-9999.0,North,11.5,18.4,N/A,Snow,Snow,360,2013-03-07 06:06:00
1:31 AM,35.6,32.0,87,29.89,-9999.0,North,6.9,16.1,N/A,Snow,Light Snow,360,2013-03-07 06:31:00
1:39 AM,35.6,32.0,87,29.89,-9999.0,North,10.4,19.6,N/A,Snow,Light Snow,360,2013-03-07 06:39:00
2:00 AM,35.6,32.0,87,29.88,-9999.0,North,6.9,17.3,N/A,Snow,Light Snow,10,2013-03-07 07:00:00
2:06 AM,37.0,32.0,82,29.88,-9999.0,NNE,4.6,-,N/A,,Overcast,30,2013-03-07 07:06:00
3:00 AM,37.0,30.9,79,29.88,-9999.0,North,9.2,19.6,N/A,,Overcast,10,2013-03-07 08:00:00
4:00 AM,39.0,28.9,67,29.90,-9999.0,Variable,6.9,20.7,N/A,,Overcast,0,2013-03-07 09:00:00
5:00 AM,39.0,28.0,65,29.92,-9999.0,North,11.5,20.7,N/A,,Overcast,10,2013-03-07 10:00:00
6:00 AM,37.0,28.9,73,29.94,-9999.0,Variable,5.8,-,N/A,,Overcast,0,2013-03-07 11:00:00
7:00 AM,39.0,27.0,62,29.95,-9999.0,North,9.2,17.3,N/A,,Overcast,10,2013-03-07 12:00:00
8:00 AM,39.0,28.0,65,29.98,-9999.0,North,10.4,17.3,N/A,,Overcast,360,2013-03-07 13:00:00
9:00 AM,39.9,30.0,68,29.98,-9999.0,North,10.4,19.6,N/A,,Overcast,360,2013-03-07 14:00:00
9:28 AM,41.0,28.4,61,29.99,-9999.0,North,11.5,24.2,N/A,,Overcast,350,2013-03-07 14:28:00
10:36 AM,41.0,28.4,61,30.01,-9999.0,North,10.4,20.7,N/A,,Overcast,360,2013-03-07 15:36:00
11:41 AM,42.8,30.2,61,30.01,-9999.0,NNW,12.7,21.9,N/A,,Overcast,340,2013-03-07 16:41:00
12:00 PM,45.0,30.9,58,30.00,-9999.0,NNW,12.7,18.4,N/A,,Overcast,330,2013-03-07 17:00:00
1:00 PM,45.0,30.0,56,30.00,-9999.0,North,8.1,20.7,N/A,,Overcast,350,2013-03-07 18:00:00
1:41 PM,44.6,30.2,57,30.00,-9999.0,North,9.2,20.7,N/A,,Overcast,360,2013-03-07 18:41:00
2:00 PM,44.6,30.2,57,30.00,-9999.0,NNW,9.2,20.7,N/A,,Overcast,330,2013-03-07 19:00:00
2:06 PM,43.0,30.0,60,30.01,-9999.0,Variable,6.9,18.4,N/A,,Overcast,0,2013-03-07 19:06:00
3:00 PM,44.6,30.2,57,30.01,-9999.0,NNW,9.2,-,N/A,,Overcast,340,2013-03-07 20:00:00
3:07 PM,44.6,32.0,61,30.01,-9999.0,Variable,5.8,-,N/A,,Overcast,0,2013-03-07 20:07:00
3:18 PM,44.6,32.0,61,30.02,-9999.0,North,10.4,21.9,N/A,,Overcast,360,2013-03-07 20:18:00
4:00 PM,42.8,33.8,70,30.03,-9999.0,North,8.1,-,0.00,,Overcast,10,2013-03-07 21:00:00
4:35 PM,42.8,33.8,70,30.03,-9999.0,Variable,5.8,18.4,0.00,,Overcast,0,2013-03-07 21:35:00
5:00 PM,41.0,33.8,76,30.04,-9999.0,NNW,8.1,20.7,0.00,Rain,Light Rain,340,2013-03-07 22:00:00
5:06 PM,42.1,33.1,70,30.04,-9999.0,North,8.1,-,0.00,Rain,Light Rain,350,2013-03-07 22:06:00
5:24 PM,39.2,33.8,81,30.04,-9999.0,North,9.2,19.6,0.00,Rain,Light Rain,350,2013-03-07 22:24:00
5:44 PM,39.2,33.8,81,30.05,-9999.0,NNW,8.1,-,0.00,Rain,Light Rain,340,2013-03-07 22:44:00
6:06 PM,41.0,34.0,76,30.06,-9999.0,NW,5.8,-,0.00,Rain,Light Rain,320,2013-03-07 23:06:00
6:16 PM,-9999,-9999,N/A,-9999,-9999.0,North,-9999.0,-,N/A,,Unknown,0,2013-03-07 23:16:00
6:36 PM,39.2,33.8,81,30.06,-9999.0,NNW,8.1,-,0.00,,Overcast,340,2013-03-07 23:36:00
7:00 PM,39.9,33.1,77,30.06,-9999.0,Variable,4.6,-,0.00,,Overcast,0,2013-03-08 00:00:00
7:10 PM,39.2,33.8,81,30.07,-9999.0,NNW,5.8,18.4,N/A,,Overcast,340,2013-03-08 00:10:00
8:00 PM,37.9,32.0,79,30.07,-9999.0,Variable,6.9,19.6,0.00,,Overcast,0,2013-03-08 01:00:00
9:00 PM,37.4,32.0,81,30.07,-9999.0,Variable,5.8,-,0.00,Snow,Light Snow,0,2013-03-08 02:00:00
9:13 PM,39.2,32.0,75,30.07,-9999.0,Variable,6.9,-,0.00,,Unknown,0,2013-03-08 02:13:00
9:26 PM,39.9,32.0,73,30.06,-9999.0,Variable,5.8,-,0.00,,Unknown,0,2013-03-08 02:26:00
9:55 PM,39.2,32.0,75,30.06,-9999.0,Variable,5.8,-,0.00,,Overcast,0,2013-03-08 02:55:00
10:00 PM,39.9,32.0,73,30.06,-9999.0,NW,6.9,-,0.00,,Overcast,320,2013-03-08 03:00:00
10:09 PM,39.2,32.0,75,30.06,-9999.0,NW,5.8,-,N/A,,Overcast,320,2013-03-08 03:09:00
10:35 PM,39.2,32.0,75,30.06,-9999.0,NW,5.8,-,0.00,,Overcast,320,2013-03-08 03:35:00
11:00 PM,41.0,32.0,70,30.06,-9999.0,Variable,4.6,-,0.00,Rain,Light Rain,0,2013-03-08 04:00:00
11:06 PM,39.9,32.0,73,30.06,-9999.0,NW,5.8,-,0.00,Rain,Light Rain,310,2013-03-08 04:06:00
11:19 PM,41.0,32.0,70,30.06,-9999.0,NW,5.8,-,N/A,,Overcast,310,2013-03-08 04:19:00
11:48 PM,39.2,32.0,75,30.06,-9999.0,NW,4.6,-,N/A,,Overcast,320,2013-03-08 04:48:00